Location: ????????
(56.0167°N, 38.0333°E)
Time: 08:09:37
(UTC+00:00)

Cosmos 2219 Rocket - Pass Details

Date: 19 May 2025
Orbit: 828 x 844 km, 71.0° (Epoch: 23 June)

Event Time Altitude Azimuth Distance (km) Brightness Sun altitude
Rises 22:21:14 0° 323° (NW) 3,401 6.0 -13.1°
Reaches altitude 10° 22:23:50 10° 315° (NW) 2,459 5.0 -13.0°
Maximum altitude 22:28:56 37° 250° (WSW) 1,277 2.9 -12.8°
Enters shadow 22:32:33 18° 193° (SSW) 1,951 3.4 -12.6°
